Location: Mahannah Oil Field
(37.4664°N, 96.6003°W)
Time: 01:41:38
(UTC+00:00)

Tiros 1 despin weight - Pass Details

Date: 02 February 2021
Orbit: 593 x 642 km, 48.2° (Epoch: 25 February)

Event Time Altitude Azimuth Distance (km) Brightness Sun altitude
Rises 20:45:48 0° 302° (WNW) 2,903 ? 28.4°
Reaches altitude 10° 20:48:32 10° 317° (NW) 1,986 ? 28.1°
Maximum altitude 20:52:12 23° 10° (N) 1,307 ? 27.7°
Drops below altitude 10° 20:55:49 10° 64° (ENE) 1,958 ? 27.3°
Sets 20:58:30 0° 79° (E) 2,852 ? 26.9°
